GW4420 Weather Reports


time (UTC)temp
C
wind
direction
speed
KPH
gust
KPH
rain 1hr
cm
rain 24hr
cm
rain mn
cm
humidity
%
barometer
mb
20260831185727 27 31 4.8 12.9 0.00 0.03 0.03 89 1008.0
20260831185223 27 37 6.4 9.7 0.00 0.03 0.03 89 1008.1
20260831184722 27 24 4.8 11.3 0.00 0.03 0.03 89 1008.3
20260831184218 27 45 3.2 12.9 0.00 0.03 0.03 89 1008.3
20260831183718 27 71 1.6 4.8 0.00 0.03 0.03 88 1008.4
20260831183217 27 357 6.4 12.9 0.18 0.03 0.03 87 1008.4
20260831182716 28 340 11.3 14.5 0.00 0.00 0.00 86 1008.6
20260831182212 28 180 6.4 11.3 0.00 0.00 0.00 86 1008.5
20260831181706 28 38 9.7 12.9 0.00 0.00 0.00 86 1008.4
20260831181201 28 35 9.7 16.1 0.00 0.00 0.00 86 1008.4
20260831180656 27 265 6.4 11.3 0.00 0.00 0.00 86 1008.2
20260831180151 27 85 3.2 11.3 0.00 0.00 0.00 87 1008.2
20260831175645 27 7 14.5 25.7 0.00 0.00 0.00 87 1008.3
20260831175143 27 60 1.6 6.4 0.00 0.00 0.00 88 1008.4
20260831174642 27 358 9.7 12.9 0.00 0.00 0.00 88 1008.2
20260831174138 27 85 4.8 12.9 0.00 0.00 0.00 88 1008.4
20260831173636 27 339 8.0 12.9 0.00 0.00 0.00 88 1008.4
20260831173132 27 41 4.8 12.9 0.00 0.00 0.00 88 1008.6
20260831172632 27 43 3.2 11.3 0.00 0.00 0.00 88 1008.5
20260831172131 27 277 6.4 12.9 0.00 0.00 0.00 88 1008.6
20260831171627 27 207 11.3 17.7 0.00 0.00 0.00 89 1008.6
20260831171124 27 28 3.2 9.7 0.00 0.00 0.00 88 1008.5
20260831170620 27 30 11.3 14.5 0.00 0.00 0.00 88 1008.4
20260831170117 27 22 4.8 24.1 0.00 0.00 0.00 88 1008.5
20260831165612 28 270 4.8 27.4 0.00 0.00 0.00 87 1008.6
20260831165109 28 73 9.7 16.1 0.00 0.00 0.00 87 1008.4
20260831164605 27 338 8.0 17.7 0.00 0.00 0.00 87 1008.5
20260831164100 27 326 4.8 9.7 0.00 0.00 0.00 87 1008.4
20260831163554 27 46 6.4 20.9 0.00 0.00 0.00 87 1008.5
20260831163051 27 236 4.8 12.9 0.00 0.00 0.00 87 1008.4
20260831162549 27 36 3.2 6.4 0.00 0.00 0.00 87 1008.5
20260831162047 27 31 3.2 9.7 0.00 0.00 0.00 87 1008.9
20260831161544 27 107 6.4 17.7 0.00 0.00 0.00 87 1008.9
20260831161040 27 64 3.2 11.3 0.00 0.00 0.00 87 1008.9
20260831160539 27 48 3.2 14.5 0.00 0.00 0.00 87 1009.0
20260831160035 27 45 4.8 12.9 0.00 0.00 0.00 87 1008.8
20260831155530 27 142 0.0 14.5 0.00 0.00 0.00 87 1009.0
20260831155024 27 83 1.6 4.8 0.00 0.00 0.00 88 1009.0
20260831154521 27 58 3.2 12.9 0.00 0.00 0.00 87 1009.0
20260831154020 27 40 3.2 6.4 0.00 0.00 0.00 87 1009.1
20260831153515 27 33 9.7 12.9 0.00 0.00 0.00 87 1009.0
20260831153012 27 352 6.4 20.9 0.00 0.00 0.00 87 1009.1
20260831152507 27 246 11.3 14.5 0.00 0.00 0.00 88 1009.1
20260831152002 27 357 4.8 17.7 0.00 0.00 0.00 88 1009.1
20260831151501 27 330 6.4 14.5 0.00 0.00 0.00 88 1009.2
20260831150956 27 18 6.4 9.7 0.00 0.00 0.00 88 1009.3
20260831150451 27 26 4.8 9.7 0.00 0.00 0.00 89 1009.3
20260831145951 27 47 0.0 11.3 0.00 0.15 0.15 89 1009.2
20260831145447 27 34 6.4 12.9 0.00 0.15 0.15 89 1009.2
20260831144942 27 21 4.8 9.7 0.00 0.15 0.15 89 1009.3
20260831144438 27 100 1.6 4.8 0.00 0.15 0.15 89 1009.4
20260831143933 27 65 3.2 12.9 0.43 0.15 0.15 87 1009.4
20260831143428 28 59 3.2 3.2 0.30 0.13 0.13 86 1009.3
20260831142924 28 59 4.8 9.7 0.00 0.08 0.08 86 1009.4
20260831142420 28 257 11.3 17.7 0.00 0.08 0.08 86 1009.3
20260831141914 28 30 1.6 6.4 0.00 0.08 0.08 87 1009.5
20260831141408 28 41 11.3 16.1 0.00 0.08 0.08 87 1009.5
20260831140903 28 62 3.2 9.7 0.00 0.08 0.08 87 1009.5
20260831140358 28 334 8.0 24.1 0.00 0.08 0.08 86 1009.5
20260831135856 28 60 3.2 17.7 0.00 0.08 0.08 87 1009.6
20260831135351 28 31 11.3 17.7 0.00 0.08 0.08 87 1009.5
20260831134846 28 18 4.8 12.9 0.00 0.08 0.08 87 1009.4
20260831134343 27 24 4.8 16.1 0.00 0.08 0.08 87 1009.6
20260831133842 27 89 1.6 11.3 0.00 0.08 0.08 88 1009.5
20260831133341 27 79 4.8 6.4 0.00 0.08 0.08 88 1009.6
20260831132837 27 55 8.0 16.1 0.00 0.08 0.08 88 1009.6
20260831132332 27 4 6.4 14.5 0.00 0.08 0.08 89 1009.4
20260831131832 27 44 3.2 9.7 0.18 0.08 0.08 88 1009.4
20260831131328 28 5 1.6 6.4 0.30 0.08 0.08 87 1009.3
20260831130823 28 30 3.2 12.9 0.00 0.03 0.03 84 1009.2
20260831130318 28 59 4.8 16.1 0.00 0.03 0.03 84 1009.1
20260831125817 28 336 9.7 14.5 0.00 0.03 0.03 84 1009.0
20260831125313 28 5 4.8 6.4 0.00 0.03 0.03 84 1009.1
20260831124813 28 18 6.4 17.7 0.00 0.03 0.03 84 1009.0
20260831124309 28 13 6.4 12.9 0.00 0.03 0.03 84 1009.0
20260831123809 28 3 8.0 12.9 0.00 0.03 0.03 84 1009.0
20260831123308 28 335 4.8 9.7 0.00 0.03 0.03 84 1008.9
20260831122803 28 335 4.8 9.7 0.00 0.03 0.03 84 1009.0
20260831122258 28 335 4.8 9.7 0.00 0.03 0.03 84 1008.7
20260831121753 28 28 6.4 9.7 0.00 0.03 0.03 83 1008.9
20260831121249 28 1 8.0 11.3 0.00 0.03 0.03 83 1009.0
20260831120744 28 1 8.0 11.3 0.00 0.03 0.03 83 1008.8
20260831120239 28 1 8.0 11.3 0.00 0.03 0.03 83 1008.9
20260831115734 28 1 8.0 11.3 0.00 0.03 0.03 83 1009.0
20260831115230 28 358 9.7 14.5 0.00 0.03 0.03 83 1008.8
20260831114730 28 339 3.2 3.2 0.00 0.03 0.03 83 1008.7
20260831114229 28 7 11.3 16.1 0.00 0.03 0.03 83 1009.0
20260831113725 28 7 11.3 16.1 0.00 0.03 0.03 83 1008.8
20260831113225 28 7 11.3 16.1 0.00 0.03 0.03 83 1008.6
20260831112724 28 50 8.0 20.9 0.00 0.03 0.03 83 1008.5
20260831112219 28 50 8.0 20.9 0.00 0.03 0.03 83 1008.8
20260831111715 28 50 8.0 20.9 0.00 0.03 0.03 83 1008.5
20260831111211 28 50 8.0 20.9 0.00 0.03 0.03 83 1008.5
20260831110706 28 259 8.0 11.3 0.00 0.03 0.03 83 1008.6
20260831110201 28 259 8.0 11.3 0.00 0.03 0.03 83 1008.4
20260831105700 28 11 9.7 11.3 0.00 0.03 0.03 83 1008.1
20260831105155 28 58 4.8 6.4 0.00 0.03 0.03 83 1008.3
20260831104650 28 4 11.3 16.1 0.00 0.03 0.03 83 1008.4
20260831104148 28 331 8.0 12.9 0.00 0.03 0.03 83 1008.2
20260831103647 28 331 8.0 12.9 0.00 0.03 0.03 83 1008.3
20260831103143 28 331 8.0 12.9 0.00 0.03 0.03 83 1008.4
20260831102643 28 331 8.0 12.9 0.00 0.03 0.03 83 1008.5
20260831102138 28 331 8.0 12.9 0.00 0.03 0.03 83 1008.0
20260831101633 28 331 8.0 12.9 0.00 0.03 0.03 83 1008.3
20260831101129 28 331 8.0 12.9 0.00 0.03 0.03 83 1008.5
20260831100625 28 331 8.0 12.9 0.00 0.03 0.03 83 1008.3
20260831100121 28 331 8.0 12.9 0.00 0.03 0.03 83 1008.3
20260831095618 28 331 8.0 12.9 0.00 0.03 0.03 83 1008.5
20260831095114 28 35 3.2 6.4 0.00 0.03 0.03 83 1008.2
20260831094609 28 31 6.4 24.1 0.00 0.03 0.03 83 1008.3
20260831094105 28 47 6.4 14.5 0.00 0.03 0.03 83 1008.2
20260831093600 28 300 4.8 12.9 0.00 0.03 0.03 82 1008.2
20260831093051 28 49 6.4 12.9 0.00 0.03 0.03 82 1008.1
20260831092547 28 27 9.7 11.3 0.00 0.03 0.03 82 1008.4
20260831092042 28 20 6.4 24.1 0.00 0.03 0.03 82 1008.4
20260831091536 28 28 11.3 24.1 0.00 0.03 0.03 82 1008.4
20260831091032 28 8 8.0 24.1 0.00 0.03 0.03 82 1008.3
20260831090527 28 26 8.0 14.5 0.00 0.03 0.03 82 1008.2
20260831090023 28 17 6.4 16.1 0.00 0.03 0.03 82 1008.1
20260831085518 28 16 12.9 24.1 0.00 0.03 0.03 81 1008.2
20260831085013 28 286 14.5 24.1 0.00 0.03 0.03 81 1008.0
20260831084509 29 2 6.4 11.3 0.00 0.03 0.03 81 1008.1
20260831084005 29 5 8.0 17.7 0.00 0.03 0.03 81 1008.0
20260831083505 29 335 3.2 20.9 0.00 0.03 0.03 81 1008.0
20260831083000 29 47 4.8 17.7 0.00 0.03 0.03 80 1008.0
20260831082459 29 352 14.5 20.9 0.00 0.03 0.03 80 1008.0
20260831081954 29 42 9.7 24.1 0.00 0.03 0.03 80 1007.9
20260831081450 29 44 11.3 17.7 0.00 0.03 0.03 80 1008.1
20260831080946 29 81 8.0 14.5 0.00 0.03 0.03 80 1007.8
20260831080440 29 49 4.8 6.4 0.00 0.03 0.03 81 1008.2
20260831075936 29 25 12.9 22.5 0.00 0.03 0.03 80 1008.0
20260831075431 29 42 4.8 12.9 0.00 0.03 0.03 81 1008.0
20260831074927 29 50 6.4 12.9 0.00 0.03 0.03 82 1008.1
20260831074426 29 40 11.3 12.9 0.00 0.03 0.03 82 1007.8
20260831073916 29 12 9.7 12.9 0.00 0.03 0.03 83 1007.7
20260831073415 29 0 11.3 17.7 0.00 0.03 0.03 84 1007.9
20260831072910 28 4 9.7 12.9 0.00 0.03 0.03 84 1008.0
20260831072405 30 48 4.8 6.4 0.00 0.03 0.03 81 1008.0
20260831071902 30 50 6.4 11.3 0.00 0.03 0.03 80 1007.8
20260831071401 30 36 9.7 16.1 0.00 0.03 0.03 80 1007.9
20260831070900 30 5 14.5 22.5 0.00 0.03 0.03 79 1007.9
20260831070359 30 340 3.2 4.8 0.00 0.03 0.03 79 1008.0
20260831065859 30 36 4.8 9.7 0.00 0.03 0.03 79 1008.1
20260831065357 30 352 9.7 14.5 0.00 0.03 0.03 78 1008.2
20260831064852 30 32 8.0 11.3 0.00 0.03 0.03 80 1008.0
20260831064347 30 20 4.8 9.7 0.00 0.03 0.03 80 1008.1
20260831063843 30 26 1.6 4.8 0.00 0.03 0.03 79 1008.3
20260831063338 30 45 1.6 6.4 0.00 0.03 0.03 80 1008.4
20260831062832 30 301 6.4 24.1 0.00 0.03 0.03 80 1008.2
20260831062328 30 338 11.3 17.7 0.00 0.03 0.03 80 1008.3
20260831061826 30 299 12.9 22.5 0.00 0.03 0.03 80 1008.3
20260831061326 30 37 8.0 12.9 0.00 0.03 0.03 80 1008.3
20260831060822 30 110 1.6 4.8 0.00 0.03 0.03 80 1008.4
20260831060321 30 282 4.8 16.1 0.00 0.03 0.03 80 1008.7
20260831055816 30 6 3.2 14.5 0.00 0.03 0.03 80 1008.5
20260831055311 30 330 6.4 22.5 0.00 0.03 0.03 79 1008.6
20260831054807 30 306 14.5 24.1 0.00 0.03 0.03 78 1008.5
20260831054301 30 349 17.7 37.0 0.00 0.03 0.03 77 1008.6
20260831053800 30 14 4.8 12.9 0.00 0.03 0.03 79 1008.6
20260831053259 30 356 8.0 16.1 0.00 0.03 0.03 79 1008.8
20260831052753 30 334 9.7 16.1 0.00 0.03 0.03 78 1008.7
20260831052252 30 236 11.3 14.5 0.00 0.03 0.03 79 1008.6
20260831051750 30 65 3.2 12.9 0.00 0.03 0.03 80 1008.8
20260831051249 30 15 11.3 29.0 0.00 0.03 0.03 80 1008.5
20260831050744 30 5 6.4 12.9 0.00 0.03 0.03 80 1008.7
20260831050243 30 44 9.7 12.9 0.00 0.03 0.03 82 1008.8
20260831045739 29 45 4.8 11.3 0.00 0.03 0.03 84 1008.8
20260831045238 29 2 9.7 12.9 0.00 0.03 0.03 82 1008.9
20260831044733 30 4 4.8 9.7 0.00 0.03 0.03 82 1008.8
20260831044228 29 11 12.9 12.9 0.00 0.03 0.03 83 1009.1
20260831043724 29 330 9.7 12.9 0.00 0.03 0.03 83 1009.1
20260831043219 29 353 4.8 14.5 0.00 0.03 0.03 85 1009.0
20260831042718 28 20 6.4 9.7 0.00 0.03 0.03 84 1009.0
20260831042213 30 307 16.1 20.9 0.00 0.03 0.03 79 1009.1
20260831041708 30 35 6.4 12.9 0.00 0.03 0.03 79 1009.1
20260831041208 30 46 6.4 16.1 0.00 0.03 0.03 80 1009.4
20260831040703 30 351 6.4 9.7 0.00 0.03 0.03 80 1009.2
20260831040202 30 0 12.9 16.1 0.00 0.03 0.03 79 1009.4
20260831035701 30 40 12.9 20.9 0.00 0.03 0.03 80 1009.3
20260831035155 30 50 3.2 17.7 0.00 0.03 0.03 81 1009.5
20260831034654 30 81 9.7 14.5 0.00 0.03 0.03 82 1009.6
20260831034149 30 8 9.7 14.5 0.00 0.03 0.03 83 1009.6
20260831033645 29 339 6.4 12.9 0.00 0.03 0.03 86 1009.7
20260831033140 29 305 16.1 22.5 0.00 0.03 0.03 85 1009.8
20260831032640 28 107 3.2 12.9 0.18 0.03 0.03 86 1009.7
20260831032136 29 35 4.8 14.5 0.18 0.03 0.03 82 1009.8
20260831031636 30 33 6.4 12.9 0.00 0.00 0.00 81 1009.9
20260831031135 29 2 3.2 4.8 0.00 0.00 0.00 84 1009.7
20260831030634 28 82 3.2 9.7 0.00 0.00 0.00 85 1010.0
20260831030133 28 46 4.8 17.7 0.00 0.00 0.00 85 1010.0
20260831025632 29 340 6.4 20.9 0.00 0.00 0.00 82 1010.0
20260831025127 29 41 3.2 4.8 0.00 0.00 0.00 82 1010.1
20260831024624 29 33 8.0 11.3 0.00 0.00 0.00 79 1010.2
20260831024122 29 33 8.0 11.3 0.00 0.00 0.00 79 1010.2
20260831023620 29 33 8.0 11.3 0.00 0.00 0.00 79 1010.2
20260831023114 29 33 8.0 11.3 0.00 0.00 0.00 79 1010.2
20260831022614 29 345 4.8 9.7 0.00 0.00 0.00 78 1010.3
20260831022109 29 345 4.8 9.7 0.00 0.00 0.00 78 1010.3
20260831021608 29 345 4.8 9.7 0.00 0.00 0.00 78 1010.3
20260831021104 29 19 9.7 12.9 0.00 0.00 0.00 78 1010.2
20260831020600 29 21 9.7 17.7 0.00 0.00 0.00 78 1010.2
20260831020054 29 1 3.2 4.8 0.00 0.00 0.00 78 1010.3
20260831015550 30 321 11.3 14.5 0.00 0.00 0.00 77 1010.2
20260831015044 29 31 6.4 6.4 0.00 0.00 0.00 78 1010.3
20260831014540 29 31 6.4 6.4 0.00 0.00 0.00 78 1010.5
20260831014035 29 326 11.3 17.7 0.00 0.00 0.00 77 1010.4
20260831013531 30 13 8.0 11.3 0.00 0.00 0.00 76 1010.3
20260831013025 30 42 6.4 6.4 0.00 0.00 0.00 77 1010.5
20260831012520 30 355 6.4 6.4 0.00 0.00 0.00 76 1010.4
20260831012015 29 97 1.6 4.8 0.00 0.00 0.00 77 1010.2
20260831011514 29 40 3.2 6.4 0.00 0.00 0.00 78 1010.3
20260831011010 29 39 3.2 3.2 0.00 0.00 0.00 78 1010.0
20260831010510 29 63 3.2 6.4 0.00 0.00 0.00 77 1010.3
20260831010007 29 79 0.0 6.4 0.00 0.00 0.00 76 1010.3
20260831005502 30 26 4.8 12.9 0.00 0.00 0.00 76 1010.2
20260831005001 30 320 3.2 14.5 0.00 0.00 0.00 75 1010.3
20260831004458 30 358 4.8 17.7 0.00 0.00 0.00 74 1010.3
20260831003953 30 16 4.8 6.4 0.00 0.00 0.00 76 1010.1
20260831003449 29 10 6.4 14.5 0.00 0.00 0.00 78 1010.2
20260831002948 29 34 8.0 12.9 0.00 0.00 0.00 78 1010.3
20260831002448 29 71 1.6 9.7 0.00 0.00 0.00 78 1010.3
20260831001943 29 3 4.8 6.4 0.00 0.00 0.00 77 1010.4
20260831001438 29 13 9.7 24.1 0.00 0.00 0.00 76 1010.2
20260831000936 29 19 3.2 6.4 0.00 0.00 0.00 77 1010.2
20260831000432 29 16 9.7 14.5 0.00 0.00 0.00 77 1010.0
20260830235929 29 27 4.8 11.3 0.00 0.00 0.00 78 1010.1
20260830235424 29 59 3.2 11.3 0.00 0.00 0.00 77 1010.0
20260830234920 29 212 3.2 4.8 0.00 0.00 0.00 78 1010.2
20260830234415 28 333 1.6 6.4 0.00 0.00 0.00 79 1010.0
20260830233911 28 10 4.8 6.4 0.00 0.00 0.00 79 1010.1
20260830233406 28 42 11.3 22.5 0.00 0.00 0.00 78 1010.1
20260830232902 28 55 1.6 11.3 0.00 0.00 0.00 78 1010.1
20260830232357 29 34 6.4 11.3 0.00 0.00 0.00 78 1010.1
20260830231854 28 71 3.2 20.9 0.00 0.00 0.00 79 1010.2
20260830231349 28 31 6.4 11.3 0.00 0.00 0.00 79 1010.0
20260830230848 28 23 3.2 9.7 0.00 0.00 0.00 80 1010.1
20260830230343 28 53 3.2 9.7 0.00 0.00 0.00 80 1009.8
20260830225842 28 63 3.2 9.7 0.00 0.00 0.00 81 1009.7
20260830225337 28 12 8.0 11.3 0.00 0.00 0.00 80 1009.9
20260830224832 28 5 4.8 9.7 0.00 0.00 0.00 81 1009.7
20260830224326 28 43 6.4 11.3 0.00 0.00 0.00 81 1009.9
20260830223823 28 320 3.2 12.9 0.00 0.00 0.00 80 1009.7
20260830223319 28 335 4.8 14.5 0.00 0.00 0.00 80 1009.8
20260830222813 27 88 1.6 4.8 0.00 0.00 0.00 81 1009.8
20260830222309 27 49 1.6 3.2 0.00 0.00 0.00 81 1009.7
20260830221804 27 19 3.2 14.5 0.00 0.00 0.00 80 1009.6
20260830221301 28 43 6.4 9.7 0.00 0.00 0.00 80 1009.9
20260830220756 28 282 4.8 14.5 0.00 0.00 0.00 80 1009.8
20260830220255 28 51 3.2 4.8 0.00 0.00 0.00 80 1009.7
20260830215753 28 27 3.2 4.8 0.00 0.00 0.00 81 1009.9
20260830215248 27 35 3.2 3.2 0.00 0.00 0.00 82 1009.9
20260830214743 27 29 4.8 6.4 0.00 0.00 0.00 83 1009.9
20260830214243 27 31 3.2 6.4 0.00 0.00 0.00 83 1009.7
20260830213742 27 67 0.0 1.6 0.00 0.00 0.00 84 1009.8
20260830213238 27 71 0.0 4.8 0.00 0.00 0.00 84 1009.6
20260830212734 27 62 1.6 3.2 0.00 0.00 0.00 84 1009.8
20260830212230 27 90 0.0 3.2 0.00 0.00 0.00 84 1009.7
20260830211729 27 19 3.2 4.8 0.00 0.00 0.00 84 1009.7
20260830211228 27 47 3.2 12.9 0.00 0.00 0.00 83 1009.5
20260830210724 27 52 3.2 11.3 0.00 0.00 0.00 84 1009.5
20260830210223 27 46 3.2 4.8 0.00 0.00 0.00 84 1009.7
20260830205720 27 53 3.2 3.2 0.00 0.00 0.00 84 1009.7
20260830205216 27 55 1.6 4.8 0.00 0.00 0.00 84 1009.7
20260830204716 27 86 1.6 3.2 0.00 0.00 0.00 84 1009.7
20260830204214 27 44 3.2 6.4 0.00 0.00 0.00 84 1009.8
20260830203711 27 56 1.6 3.2 0.00 0.00 0.00 84 1009.6
20260830203206 27 294 3.2 6.4 0.00 0.00 0.00 84 1009.8
20260830202700 27 90 0.0 1.6 0.00 0.00 0.00 84 1009.5
20260830202155 27 23 3.2 4.8 0.00 0.00 0.00 84 1009.7
20260830201654 27 70 3.2 4.8 0.00 0.00 0.00 84 1009.6
20260830201150 27 59 1.6 6.4 0.00 0.00 0.00 84 1009.6
20260830200645 27 90 4.8 6.4 0.00 0.00 0.00 84 1009.7
20260830200144 27 38 1.6 3.2 0.00 0.00 0.00 84 1009.6
20260830195640 27 25 3.2 6.4 0.00 0.00 0.00 84 1009.7
20260830195138 27 53 3.2 9.7 0.00 0.00 0.00 84 1009.9
20260830194637 27 24 3.2 9.7 0.00 0.00 0.00 84 1009.9
20260830194137 27 105 3.2 6.4 0.00 0.00 0.00 84 1009.9
20260830193632 27 53 1.6 3.2 0.00 0.00 0.00 84 1009.7
20260830193127 27 26 3.2 6.4 0.00 0.00 0.00 84 1009.7
20260830192623 27 6 1.6 6.4 0.00 0.00 0.00 84 1009.6
20260830192122 27 20 3.2 4.8 0.00 0.00 0.00 84 1009.6
20260830191618 27 340 1.6 3.2 0.00 0.00 0.00 84 1009.5
20260830191114 27 64 3.2 4.8 0.00 0.00 0.00 84 1009.6
20260830190609 27 24 4.8 6.4 0.00 0.00 0.00 84 1009.6
20260830190104 27 79 3.2 11.3 0.00 0.00 0.00 84 1009.5